GW0795 Weather Reports


time (UTC)temp
C
wind
direction
speed
KPH
gust
KPH
rain 1hr
cm
rain 24hr
cm
rain mn
cm
humidity
%
barometer
mb
20260502195509 20 185 3.2 8.0 0.00 0.00 0.00 64 1015.8
20260502195006 20 24 4.8 8.0 0.00 0.00 0.00 62 1015.8
20260502194508 19 13 3.2 12.9 0.00 0.00 0.00 63 1015.9
20260502194004 18 341 4.8 12.9 0.00 0.00 0.00 66 1015.9
20260502193507 19 324 3.2 6.4 0.00 0.00 0.00 64 1016.0
20260502193014 18 294 3.2 9.7 0.00 0.00 0.00 67 1016.0
20260502192507 17 240 4.8 9.7 0.00 0.00 0.00 66 1016.1
20260502192008 18 321 3.2 6.4 0.00 0.00 0.00 68 1016.3
20260502191522 17 121 1.6 9.7 0.00 0.00 0.00 67 1016.2
20260502191009 17 69 1.6 9.7 0.00 0.00 0.00 68 1016.3
20260502190509 17 291 3.2 8.0 0.00 0.00 0.00 68 1016.3
20260502190023 18 221 1.6 12.9 0.00 0.00 0.00 66 1016.3
20260502185512 17 39 1.6 12.9 0.00 0.00 0.00 67 1016.4
20260502185011 17 360 4.8 14.5 0.00 0.00 0.00 67 1016.6
20260502184525 17 114 1.6 14.5 0.00 0.00 0.00 69 1016.5
20260502184007 17 360 3.2 11.3 0.00 0.00 0.00 70 1016.6
20260502183504 16 333 4.8 11.3 0.00 0.00 0.00 70 1016.6
20260502183013 16 15 3.2 6.4 0.00 0.00 0.00 71 1016.7
20260502182504 16 346 1.6 6.4 0.00 0.00 0.00 70 1016.7
20260502182011 16 48 1.6 8.0 0.00 0.00 0.00 72 1016.7
20260502181519 15 12 3.2 8.0 0.00 0.00 0.00 72 1016.7
20260502181008 15 352 6.4 8.0 0.00 0.00 0.00 71 1016.7
20260502180508 15 352 3.2 8.0 0.00 0.00 0.00 73 1016.7
20260502170511 13 163 1.6 4.8 0.00 0.00 0.00 81 1017.1
20260502164009 11 298 1.6 4.8 0.00 0.00 0.00 85 1017.3
20260502163511 11 292 3.2 4.8 0.00 0.00 0.00 85 1017.2
20260502163033 11 301 1.6 4.8 0.00 0.00 0.00 86 1017.3
20260502162508 11 267 3.2 4.8 0.00 0.00 0.00 87 1017.2
20260502162012 10 273 1.6 4.8 0.00 0.00 0.00 87 1017.3
20260502161529 10 284 1.6 6.4 0.00 0.00 0.00 86 1017.3
20260502161010 11 272 1.6 6.4 0.00 0.00 0.00 85 1017.3
20260502160508 11 181 1.6 4.8 0.00 0.00 0.00 87 1017.4
20260502152011 10 277 0.0 0.0 0.00 0.00 0.00 88 1017.0
20260502151509 10 232 0.0 0.0 0.00 0.00 0.00 89 1017.1
20260502151006 10 232 0.0 0.0 0.00 0.00 0.00 88 1017.2
20260502150504 10 284 0.0 0.0 0.00 0.00 0.00 88 1017.1
20260502130505 9 187 0.0 0.0 0.00 0.00 0.00 90 1017.0
20260502123507 10 187 0.0 3.2 0.00 0.00 0.00 90 1017.1
20260502123022 10 187 0.0 3.2 0.00 0.00 0.00 90 1017.2
20260502122512 9 179 1.6 3.2 0.00 0.00 0.00 90 1017.2
20260502122009 9 151 0.0 0.0 0.00 0.00 0.00 90 1017.2
20260502121524 10 151 0.0 0.0 0.00 0.00 0.00 90 1017.3
20260502121009 9 151 0.0 0.0 0.00 0.00 0.00 90 1017.3
20260502120511 9 142 0.0 0.0 0.00 0.00 0.00 90 1017.2
20260502115507 9 142 0.0 3.2 0.00 0.00 0.00 89 1017.4
20260502115004 9 91 0.0 3.2 0.00 0.00 0.00 90 1017.2
20260502114512 9 175 0.0 3.2 0.00 0.00 0.00 90 1017.3
20260502114004 9 175 0.0 1.6 0.00 0.00 0.00 89 1017.3
20260502113509 9 288 0.0 0.0 0.00 0.00 0.00 90 1017.2
20260502113019 9 236 0.0 0.0 0.00 0.00 0.00 89 1017.3
20260502112507 10 241 0.0 0.0 0.00 0.00 0.00 89 1017.2
20260502112007 10 241 0.0 0.0 0.00 0.00 0.00 89 1017.2
20260502111523 10 225 0.0 0.0 0.00 0.00 0.00 89 1017.4
20260502111010 10 218 0.0 0.0 0.00 0.00 0.00 89 1017.5
20260502110509 10 338 0.0 1.6 0.00 0.00 0.00 89 1017.5
20260502110026 10 194 0.0 3.2 0.00 0.00 0.00 89 1017.7
20260502105512 10 212 1.6 3.2 0.00 0.00 0.00 89 1017.9
20260502105011 10 207 0.0 3.2 0.00 0.00 0.00 89 1017.9
20260502104534 10 211 0.0 3.2 0.00 0.00 0.00 89 1017.9
20260502104004 10 200 0.0 3.2 0.00 0.00 0.00 89 1017.8
20260502103504 10 199 0.0 3.2 0.00 0.00 0.00 89 1017.6
20260502103025 10 196 0.0 3.2 0.00 0.00 0.00 89 1017.3
20260502102506 10 185 0.0 0.0 0.00 0.00 0.00 88 1017.1
20260502102008 10 185 0.0 0.0 0.00 0.00 0.00 88 1017.1
20260502101520 10 185 0.0 0.0 0.00 0.00 0.00 88 1016.9
20260502101007 10 185 0.0 1.6 0.00 0.00 0.00 88 1016.9
20260502100507 10 185 0.0 3.2 0.00 0.00 0.00 88 1016.9
20260502091524 11 184 0.0 0.0 0.00 0.00 0.00 86 1016.7
20260502091014 11 184 0.0 0.0 0.00 0.00 0.00 86 1016.8
20260502090508 11 184 0.0 1.6 0.00 0.00 0.00 85 1017.0
20260502071536 12 281 0.0 0.0 0.00 0.00 0.00 71 1016.6
20260502071004 12 281 0.0 0.0 0.00 0.00 0.00 71 1016.8
20260502070507 12 281 0.0 0.0 0.00 0.00 0.00 72 1016.8
20260502070023 13 281 0.0 0.0 0.00 0.00 0.00 71 1016.7
20260502065508 13 281 0.0 1.6 0.00 0.00 0.00 70 1016.6
20260502065008 13 281 0.0 3.2 0.00 0.00 0.00 70 1016.6
20260502064521 13 281 0.0 3.2 0.00 0.00 0.00 70 1016.6
20260502064004 13 281 0.0 3.2 0.00 0.00 0.00 70 1016.6
20260502063504 13 281 0.0 3.2 0.00 0.00 0.00 70 1016.6
20260502063007 13 284 0.0 3.2 0.00 0.00 0.00 69 1016.4
20260502062503 13 284 0.0 3.2 0.00 0.00 0.00 70 1016.5
20260502062004 13 284 0.0 4.8 0.00 0.00 0.00 69 1016.5
20260502061510 13 294 1.6 4.8 0.00 0.00 0.00 68 1016.4
20260502061003 13 223 0.0 3.2 0.00 0.00 0.00 69 1016.6
20260502060507 14 303 1.6 3.2 0.00 0.00 0.00 68 1016.5
20260502060020 14 248 0.0 3.2 0.00 0.00 0.00 68 1016.5
20260502055508 14 195 0.0 3.2 0.00 0.00 0.00 67 1016.4
20260502055010 14 281 1.6 3.2 0.00 0.00 0.00 67 1016.3
20260502054522 15 252 1.6 3.2 0.00 0.00 0.00 66 1016.2
20260502054007 15 269 1.6 6.4 0.00 0.00 0.00 62 1016.2
20260502053507 16 261 3.2 6.4 0.00 0.00 0.00 58 1016.1
20260502053024 16 270 1.6 3.2 0.00 0.00 0.00 56 1016.1
20260502052503 16 24 0.0 4.8 0.00 0.00 0.00 56 1016.1
20260502052002 16 25 1.6 6.4 0.00 0.00 0.00 55 1016.0
20260502051517 16 342 1.6 6.4 0.00 0.00 0.00 56 1015.9
20260502051003 16 352 0.0 3.2 0.00 0.00 0.00 55 1016.0
20260502050507 16 17 0.0 3.2 0.00 0.00 0.00 55 1015.9
20260502050016 16 11 1.6 3.2 0.00 0.00 0.00 55 1015.9
20260502045504 16 9 0.0 4.8 0.00 0.00 0.00 54 1015.9
20260502045007 17 352 3.2 4.8 0.00 0.00 0.00 54 1015.9
20260502044520 17 5 0.0 8.0 0.00 0.00 0.00 54 1015.8
20260502044008 17 30 1.6 8.0 0.00 0.00 0.00 54 1015.7
20260502043507 17 5 1.6 8.0 0.00 0.00 0.00 55 1015.8
20260502043021 17 35 1.6 8.0 0.00 0.00 0.00 56 1015.7
20260502042512 17 336 3.2 8.0 0.00 0.00 0.00 56 1015.8
20260502042010 16 53 0.0 3.2 0.00 0.00 0.00 57 1015.8
20260502041524 17 49 0.0 4.8 0.00 0.00 0.00 59 1015.6
20260502041007 17 11 0.0 4.8 0.00 0.00 0.00 58 1015.7
20260502040503 17 313 1.6 4.8 0.00 0.00 0.00 59 1015.7
20260502040014 17 352 1.6 8.0 0.00 0.00 0.00 59 1015.6
20260502035503 17 13 1.6 8.0 0.00 0.00 0.00 59 1015.5
20260502035006 17 10 1.6 9.7 0.00 0.00 0.00 60 1015.3
20260502034534 17 5 3.2 9.7 0.00 0.00 0.00 59 1015.3
20260502034008 17 42 0.0 9.7 0.00 0.00 0.00 59 1015.3
20260502033509 17 26 1.6 11.3 0.00 0.00 0.00 59 1015.0
20260502033028 17 13 4.8 11.3 0.00 0.00 0.00 58 1015.0
20260502032507 17 346 1.6 3.2 0.00 0.00 0.00 59 1015.0
20260502032010 17 342 0.0 3.2 0.00 0.00 0.00 59 1015.0
20260502031524 17 274 0.0 0.0 0.00 0.00 0.00 60 1014.9
20260502031010 17 274 0.0 0.0 0.00 0.00 0.00 58 1014.9
20260502030510 17 275 0.0 0.0 0.00 0.00 0.00 58 1014.9
20260502030024 17 275 0.0 0.0 0.00 0.00 0.00 57 1014.8
20260502025506 17 275 0.0 1.6 0.00 0.00 0.00 56 1014.7
20260502025006 18 275 0.0 3.2 0.00 0.00 0.00 56 1014.7
20260502024512 18 275 1.6 3.2 0.00 0.00 0.00 53 1014.7
20260502024007 18 13 0.0 4.8 0.00 0.00 0.00 51 1014.6
20260502023512 18 13 1.6 6.4 0.00 0.00 0.00 50 1014.5
20260502023020 18 5 1.6 6.4 0.00 0.00 0.00 50 1014.6
20260502022506 19 302 3.2 6.4 0.00 0.00 0.00 49 1014.4
20260502022007 19 296 0.0 4.8 0.00 0.00 0.00 49 1014.6
20260502021524 19 40 1.6 4.8 0.00 0.00 0.00 48 1014.5
20260502021008 19 18 3.2 4.8 0.00 0.00 0.00 47 1014.5
20260502020510 19 36 3.2 4.8 0.00 0.00 0.00 47 1014.4
20260502020024 19 19 3.2 4.8 0.00 0.00 0.00 48 1014.4
20260502015508 19 22 3.2 8.0 0.00 0.00 0.00 47 1014.5
20260502015012 19 5 4.8 8.0 0.00 0.00 0.00 46 1014.5
20260502014527 19 214 1.6 12.9 0.00 0.00 0.00 46 1014.5
20260502014009 19 346 6.4 17.7 0.00 0.00 0.00 46 1014.5
20260502013504 19 328 4.8 17.7 0.00 0.00 0.00 45 1014.6
20260502013016 19 24 6.4 14.5 0.00 0.00 0.00 45 1014.6
20260502012507 20 48 3.2 11.3 0.00 0.00 0.00 45 1014.6
20260502012009 20 18 3.2 11.3 0.00 0.00 0.00 44 1014.6
20260502011529 20 16 3.2 16.1 0.00 0.00 0.00 45 1014.7
20260502011008 20 57 6.4 16.1 0.00 0.00 0.00 44 1014.7
20260502010508 20 305 4.8 9.7 0.00 0.00 0.00 44 1014.7
20260502010004 20 338 4.8 12.9 0.00 0.00 0.00 44 1014.7
20260502005503 20 337 4.8 14.5 0.00 0.00 0.00 44 1014.7
20260502005004 20 65 6.4 14.5 0.00 0.00 0.00 44 1014.7
20260502004508 20 36 3.2 9.7 0.00 0.00 0.00 45 1014.7
20260502004007 20 5 3.2 11.3 0.00 0.00 0.00 43 1014.7
20260502003502 20 291 6.4 14.5 0.00 0.00 0.00 43 1014.6
20260502003004 21 295 8.0 14.5 0.00 0.00 0.00 42 1014.7
20260502002501 21 352 4.8 8.0 0.00 0.00 0.00 43 1014.7
20260502002001 21 9 1.6 8.0 0.00 0.00 0.00 43 1014.6
20260502001504 21 65 1.6 6.4 0.00 0.00 0.00 43 1014.6
20260502001003 21 11 3.2 12.9 0.00 0.00 0.00 44 1014.6
20260502000504 21 45 6.4 12.9 0.00 0.00 0.00 44 1014.6
20260502000005 21 20 4.8 12.9 0.00 0.00 0.00 44 1014.6
20260501235506 21 352 6.4 12.9 0.00 0.00 0.00 43 1014.6
20260501235004 21 350 3.2 12.9 0.00 0.00 0.00 44 1014.5
20260501234507 21 9 1.6 14.5 0.00 0.00 0.00 45 1014.4
20260501234004 21 26 4.8 14.5 0.00 0.00 0.00 43 1014.5
20260501233507 21 66 1.6 6.4 0.00 0.00 0.00 50 1014.6
20260501233013 21 28 3.2 4.8 0.00 0.00 0.00 45 1014.6
20260501232508 21 71 1.6 9.7 0.00 0.00 0.00 51 1014.6
20260501232004 21 254 3.2 9.7 0.00 0.00 0.00 49 1014.6
20260501231503 20 5 1.6 9.7 0.00 0.00 0.00 51 1014.7
20260501231003 20 281 3.2 6.4 0.00 0.00 0.00 54 1014.7
20260501230504 20 294 1.6 4.8 0.00 0.00 0.00 53 1014.9
20260501230005 20 301 1.6 6.4 0.00 0.00 0.00 54 1014.9
20260501225504 20 256 1.6 6.4 0.00 0.00 0.00 54 1014.9
20260501225003 20 268 3.2 6.4 0.00 0.00 0.00 54 1015.1
20260501224507 20 308 3.2 6.4 0.00 0.00 0.00 53 1015.1
20260501224003 21 293 3.2 9.7 0.00 0.00 0.00 52 1015.2
20260501223508 22 272 3.2 9.7 0.00 0.00 0.00 49 1015.3
20260501223010 21 315 3.2 4.8 0.00 0.00 0.00 48 1015.2
20260501222506 22 17 1.6 9.7 0.00 0.00 0.00 47 1015.2
20260501222008 21 307 3.2 14.5 0.00 0.00 0.00 47 1015.3
20260501221514 21 49 3.2 14.5 0.00 0.00 0.00 46 1015.4
20260501221012 21 327 4.8 11.3 0.00 0.00 0.00 45 1015.4
20260501220503 21 348 4.8 12.9 0.00 0.00 0.00 46 1015.4
20260501220006 21 19 3.2 12.9 0.00 0.00 0.00 44 1015.5
20260501215504 21 327 4.8 11.3 0.00 0.00 0.00 43 1015.5
20260501215004 21 351 4.8 9.7 0.00 0.00 0.00 43 1015.6
20260501214510 21 34 3.2 9.7 0.00 0.00 0.00 42 1015.6
20260501214003 21 9 4.8 11.3 0.00 0.00 0.00 43 1015.6
20260501213503 21 34 3.2 14.5 0.00 0.00 0.00 46 1015.6
20260501213011 21 9 6.4 14.5 0.00 0.00 0.00 45 1015.6
20260501212503 21 267 4.8 8.0 0.00 0.00 0.00 44 1015.8
20260501212007 21 264 3.2 12.9 0.00 0.00 0.00 50 1015.8
20260501211520 20 360 3.2 12.9 0.00 0.00 0.00 48 1015.8
20260501211005 20 273 1.6 9.7 0.00 0.00 0.00 50 1015.8
20260501210509 20 337 4.8 9.7 0.00 0.00 0.00 49 1015.8
20260501210020 20 338 3.2 8.0 0.00 0.00 0.00 50 1015.8
20260501205507 20 279 3.2 11.3 0.00 0.00 0.00 51 1015.8
20260501205004 20 24 4.8 11.3 0.00 0.00 0.00 51 1015.8
20260501204503 20 280 1.6 11.3 0.00 0.00 0.00 52 1015.8
20260501204004 20 207 4.8 11.3 0.00 0.00 0.00 50 1015.9
20260501203503 20 286 4.8 12.9 0.00 0.00 0.00 51 1015.9
20260501203008 20 233 1.6 12.9 0.00 0.00 0.00 51 1015.9
20260501202504 19 281 3.2 11.3 0.00 0.00 0.00 53 1015.9
20260501202003 19 313 3.2 11.3 0.00 0.00 0.00 51 1015.9
20260501201512 19 258 3.2 11.3 0.00 0.00 0.00 52 1016.0
20260501201006 19 251 3.2 12.9 0.00 0.00 0.00 53 1015.9
20260501200513 19 288 1.6 12.9 0.00 0.00 0.00 53 1015.9
20260501200020 18 302 3.2 9.7 0.00 0.00 0.00 54 1015.9